Weather History for Detroit Metro, MI

Change the Weather History Date:

Wednesday, December 28, 2011

  Actual Average Record
Temperature  
Mean Temperature 27 °F 27 °F  
Max Temperature 31 °F 33 °F 64 °F (1984)
Min Temperature 23 °F 21 °F -4 °F (1924)
Degree Days  
Heating Degree Days 38 38  
Month to date heating degree days 821 967  
Since 1 July heating degree days 1800 2182  
Cooling Degree Days 0 0  
Month to date cooling degree days 0 0  
Year to date cooling degree days 1060 803  
Moisture  
Dew Point 14 °F    
Average Humidity 60    
Maximum Humidity 78    
Minimum Humidity 42    
Precipitation  
Precipitation 0.00 in 0.08 in 0.99 in (1968)
Month to date precipitation 2.41 2.24  
Year to date precipitation 47.32 33.25  
Snow  
Snow 0.00 in 0.30 in 7.20 in (1987)
Month to date snowfall 5.6 8.4  
Since 1 July snowfall 6.2 10.0  
Snow Depth T in    
Sea Level Pressure  
Sea Level Pressure 29.94 in    
Wind  
Wind Speed 10 mph (WNW)    
Max Wind Speed 29 mph    
Max Gust Speed 38 mph    
Visibility 10 miles    
Events      
T = Trace of Precipitation, MM = Missing Value Source: NWS Daily Summary

Daily Weather History Graph

Daily Weather History Graph

Search for Another Location

Airport:

Trip Planner

Search our weather history database for the weather conditions in past years. The results will help you decide how hot, cold, wet, or windy it might be!

Date:

Astronomy

Dec. 28, 2011 Rise Set
Actual Time 8:01 AM EST 5:08 PM EST
Civil Twilight 7:29 AM EST 5:40 PM EST
Nautical Twilight 6:54 AM EST 6:15 PM EST
Astronomical Twilight 6:20 AM EST 6:49 PM EST
Moon 10:22 AM EST (12/28) 9:48 PM EST (12/28)
Length of Visible Light 10h 10m
Length of Day
9h 06m
Waxing Crescent, 18% of the Moon is Illuminated
Dec 28
Waxing Crescent
Jan 1
First Quarter
Jan 9
Full
Jan 16
Last Quarter
Jan 23
New

Hourly Weather History & Observations

Time (EST) Temp. Windchill Dew Point Humidity Pressure Visibility Wind Dir Wind Speed Gust Speed Precip Events Conditions
12:47 AM 28.4 °F 15.4 °F 21.2 °F 74% 29.70 in 10.0 mi WNW 19.6 mph 29.9 mph N/A   Overcast
12:53 AM 28.9 °F 16.9 °F 21.0 °F 72% 29.73 in 10.0 mi WNW 17.3 mph 29.9 mph N/A   Overcast
12:58 AM 28.4 °F 15.4 °F 21.2 °F 74% 29.71 in 10.0 mi WNW 19.6 mph 25.3 mph N/A   Overcast
1:53 AM 28.9 °F 16.1 °F 21.0 °F 72% 29.76 in 10.0 mi WNW 19.6 mph 31.1 mph N/A   Overcast
2:53 AM 28.0 °F 13.9 °F 18.0 °F 66% 29.81 in 10.0 mi WNW 23.0 mph 31.1 mph N/A   Overcast
3:46 AM 26.6 °F 12.4 °F 15.8 °F 64% 29.81 in 10.0 mi WNW 21.9 mph 31.1 mph N/A   Overcast
3:53 AM 27.0 °F 14.3 °F 16.0 °F 63% 29.84 in 10.0 mi NW 17.3 mph 29.9 mph N/A   Overcast
4:53 AM 26.1 °F 12.0 °F 15.1 °F 63% 29.87 in 10.0 mi WNW 20.7 mph 32.2 mph N/A   Overcast
5:53 AM 25.0 °F 12.6 °F 15.1 °F 66% 29.90 in 10.0 mi NW 15.0 mph 25.3 mph N/A   Overcast
6:53 AM 24.1 °F 11.0 °F 12.9 °F 62% 29.93 in 10.0 mi West 16.1 mph 23.0 mph N/A   Mostly Cloudy
7:53 AM 23.0 °F 10.6 °F 12.0 °F 63% 29.95 in 10.0 mi WNW 13.8 mph 23.0 mph N/A   Overcast
8:53 AM 23.0 °F 13.1 °F 12.0 °F 63% 29.98 in 10.0 mi WNW 9.2 mph - N/A   Mostly Cloudy
9:53 AM 23.0 °F 10.1 °F 10.0 °F 58% 30.01 in 10.0 mi WNW 15.0 mph 21.9 mph N/A   Mostly Cloudy
10:53 AM 25.0 °F 15.5 °F 12.0 °F 58% 30.02 in 10.0 mi WNW 9.2 mph - N/A   Mostly Cloudy
11:53 AM 26.1 °F 15.0 °F 10.0 °F 51% 30.01 in 10.0 mi WNW 12.7 mph - N/A   Mostly Cloudy
12:53 PM 28.0 °F 18.6 °F 8.1 °F 43% 30.00 in 10.0 mi West 10.4 mph - N/A   Scattered Clouds
1:53 PM 28.9 °F 19.8 °F 10.0 °F 45% 30.00 in 10.0 mi West 10.4 mph - N/A   Scattered Clouds
2:53 PM 28.9 °F 19.8 °F 8.1 °F 41% 30.01 in 10.0 mi West 10.4 mph - N/A   Partly Cloudy
3:53 PM 28.9 °F 22.8 °F 9.0 °F 43% 30.02 in 10.0 mi West 5.8 mph - N/A   Partly Cloudy
4:53 PM 26.1 °F 20.5 °F 10.0 °F 51% 30.04 in 10.0 mi NW 4.6 mph - N/A   Scattered Clouds
5:53 PM 25.0 °F 19.3 °F 12.0 °F 58% 30.04 in 10.0 mi West 4.6 mph - N/A   Scattered Clouds
6:53 PM 26.1 °F 21.9 °F 12.9 °F 58% 30.04 in 10.0 mi West 3.5 mph - N/A   Mostly Cloudy
7:53 PM 26.1 °F - 14.0 °F 60% 30.04 in 10.0 mi Calm Calm - N/A   Mostly Cloudy
8:53 PM 25.0 °F - 14.0 °F 63% 30.03 in 10.0 mi Calm Calm - N/A   Mostly Cloudy
9:53 PM 25.0 °F - 16.0 °F 69% 30.02 in 10.0 mi Calm Calm - N/A   Overcast
10:53 PM 25.0 °F 20.7 °F 16.0 °F 69% 30.01 in 10.0 mi SSE 3.5 mph - N/A   Overcast
11:53 PM 24.1 °F 19.7 °F 16.0 °F 71% 29.99 in 10.0 mi SE 3.5 mph - N/A   Mostly Cloudy